Location: Escondida
(34.1015°N, 106.8964°W)
Time: 14:42:30
(UTC+00:00)

Thor Agena Rocket - Pass Details

Date: 11 December 2025
Orbit: 754 x 802 km, 99.1° (Epoch: 19 January)

Event Time Altitude Azimuth Distance (km) Brightness Sun altitude
Rises 13:25:20 0° 11° (NNE) 3,223 6.6 -8.0°
Reaches altitude 10° 13:27:38 10° 11° (N) 2,290 5.9 -7.5°
Maximum altitude 13:32:40 79° 285° (WNW) 772 3.4 -6.6°
Drops below altitude 10° 13:37:39 10° 199° (SSW) 2,270 6.0 -5.6°
Sets 13:39:56 0° 198° (SSW) 3,193 6.8 -5.2°
